User: anonymous   Login
Location: Unspecified
(0.0000°N, 0.0000°E)
Time: 04:34:48
(UTC+02:00)
Language:

Orbus 21S - Orbit

View from above orbital plane
View from above orbital plane
View from above satellite
View from above satellite

Ground track
Ground track

The orbit data is extracted from the following two-line orbital elements,

1 20669U 90056C   17146.29960761 +.00001179 +00000-0 +65268-3 0  9990
2 20669 024.3188 096.1024 7110981 007.9064 358.8732 02.48111418226888
Epoch (UTC): 26 May 2017 07:11:26
Eccentricity: 0.7110981
inclination: 24.3188°
perigee height: 280 km
apogee height: 33059 km
right ascension of ascending node: 96.1024°
argument of perigee: 7.9064°
revolutions per day: 2.48111418
mean anomaly at epoch: 358.8732°
orbit number at epoch: 22688

The dashed part of the orbit path shows where the satellite is in the earth's shadow,  

DLR